ONEWEB-0422, 51626

Orbit data source: Space-Track

ONEWEB-0422, 51626 is a payload satellite owned by One Web (NAA) (UK) in LEO that was launched on Thu, 10 Feb 2022 UTC via a SOYUZ-ST-B launch vehicle from the French Guiana (FRGUI). Payload-class satellites include a variety of spacecraft equipped with specific instruments for various scientific and technological missions. These include communications satellites like Starlink; space stations such as the ISS; scientific satellites like the Hubble; Earth observation satellites from companies like Planet Labs, Umbra, and HawkEye 360; GPS; miniature CubeSats for education and research; and military/defense satellites.

Loading next visibility...
Identifier
51626, 2022-012E
Orbit
LEO
Country
Flag of UKUK
Related business
Manufacturer
One Web
Mission
Operational Commercial Communications
Bus & Motor
ARROW, Unknown motor
Mass
148 kg wet, ~140 kg dry
Launch date (UTC)
2022-02-10 (4 years ago)
Launch vehicle
SOYUZ-ST-B
Launch site
French Guiana (FRGUI)
Object type
Payload
Rocket body
Debris
Shape & HBR
Trap Box + 2 Pan, 6.7 m
Radar Cross Section
3.464 m², Large (>1 m²)

Expand to show TLE details & history
Last TLE update: 3 days ago

TLE from 3 days ago
0 ONEWEB-0422
1 51626U 22012E   26170.58143098 -.00000055  00000-0 -17603-3 0  9993
2 51626  87.9140   5.3821 0001195  91.5930 268.5339 13.17648279214127
Epoch: 2026-06-19T13:57Z
TLE epoch observation values (Epoch: 2026-06-19T13:57:15.636Z)
Latitude
0.00003°
Longitude
-111.7414°
Altitude
1,196.638 km
Speed
7.256 km/s
True Right ascension
00h 21m 31s
True Declination
0° 00' 00"
Sunlit
Object was in daylight at epoch
Visualization orbit readout
Latitude
Unknown
Longitude
Unknown
Altitude
Unknown
Speed
Unknown
Apparent Right ascension
Unknown
Apparent Declination
Unknown
Sunlit
N/A
Visualization observer readout
Local Sidereal Time
21:28:23
Azimuth
Unknown
Elevation
Unknown
Doppler factor
Unknown
Orbital elements
Apogee altitude
1,191.729 km
Perigee altitude
1,189.92 km
Semi-major axis
7,568.962 km
Eccentricity
0.00012
Inclination
87.914°
RAAN
5.3821°
Arg. of periapsis
91.593°
True anomaly
268.52021°
Mean anomaly
268.5339°
Eccentric anomaly
268.52706°
Mean motion
3.29601 °/min
Orbital period
109.22 mins
BSTAR
-0.00017603
Loading maneuver chart data...
Computing Atmospheric mass density...
Loading historical data...
Loading historical data...
Loading historical data...
Loading historical data...
Loading historical data...
Loading historical data...
Loading historical data...

Documentation

Showing up to 5 results
|